FW2882 Weather Reports


time (UTC)temp
C
wind
direction
speed
KPH
gust
KPH
rain 1hr
cm
rain 24hr
cm
rain mn
cm
humidity
%
barometer
mb
20260509112548 10 199 1.6 1.6 0.00 0.00 0.00 93 1004.1
20260509112451 10 164 1.6 8.0 0.00 0.00 0.00 93 1004.2
20260509112047 10 207 0.0 0.0 0.00 0.00 0.00 93 1004.1
20260509111952 10 173 1.6 6.4 0.00 0.00 0.00 93 1004.1
20260509111451 10 191 0.0 6.4 0.00 0.00 0.00 93 1004.2
20260509111047 10 249 1.6 1.6 0.00 0.00 0.00 93 1004.1
20260509110955 10 239 1.6 8.0 0.00 0.00 0.00 93 1004.3
20260509110547 10 209 1.6 1.6 0.00 0.00 0.00 93 1004.1
20260509110450 10 207 0.0 8.0 0.00 0.00 0.00 93 1004.3
20260509105952 10 271 0.0 8.0 0.00 0.00 0.00 93 1004.3
20260509105450 10 172 3.2 9.7 0.00 0.00 0.00 93 1004.3
20260509105047 10 189 1.6 1.6 0.00 0.00 0.00 93 1004.1
20260509104953 10 157 0.0 9.7 0.00 0.00 0.00 93 1004.2
20260509104450 10 222 1.6 9.7 0.00 0.00 0.00 93 1004.4
20260509103953 10 205 4.8 6.4 0.00 0.00 0.00 93 1004.3
20260509103451 10 192 1.6 4.8 0.00 0.00 0.00 93 1004.5
20260509102952 10 229 0.0 6.4 0.00 0.00 0.00 93 1004.5
20260509102719 10 213 1.6 1.6 0.00 0.00 0.00 93 1004.1
20260509102451 10 191 3.2 6.4 0.00 0.00 0.00 93 1004.4
20260509102219 10 252 1.6 1.6 0.00 0.00 0.00 93 1004.4
20260509101952 10 188 3.2 6.4 0.00 0.00 0.00 93 1004.5
20260509101719 10 197 1.6 1.6 0.00 0.00 0.00 93 1004.4
20260509101451 10 195 4.8 6.4 0.00 0.00 0.00 93 1004.6
20260509101219 10 205 1.6 1.6 0.00 0.00 0.00 93 1004.4
20260509100952 10 195 0.0 6.4 0.00 0.00 0.00 93 1004.6
20260509100451 10 232 0.0 6.4 0.00 0.00 0.00 93 1004.7
20260509100219 10 259 1.6 1.6 0.00 0.00 0.00 93 1004.4
20260509095954 10 229 1.6 8.0 0.00 0.00 0.00 93 1004.7
20260509095719 10 230 1.6 1.6 0.00 0.00 0.00 93 1004.4
20260509095451 10 191 1.6 4.8 0.00 0.00 0.00 92 1004.7
20260509094951 10 223 1.6 9.7 0.00 0.00 0.00 93 1004.8
20260509094719 10 213 1.6 1.6 0.00 0.00 0.00 93 1004.7
20260509094450 10 269 3.2 9.7 0.00 0.00 0.00 93 1004.8
20260509093951 10 190 3.2 6.4 0.00 0.00 0.00 93 1004.8
20260509093719 10 225 1.6 1.6 0.00 0.00 0.00 93 1004.7
20260509093451 10 248 1.6 6.4 0.00 0.00 0.00 92 1004.8
20260509092951 10 257 1.6 8.0 0.00 0.00 0.00 92 1004.9
20260509092451 10 207 1.6 8.0 0.00 0.00 0.00 92 1004.9
20260509092219 10 217 0.0 0.0 0.00 0.00 0.00 92 1004.7
20260509091952 10 215 0.0 4.8 0.00 0.00 0.00 92 1004.9
20260509091451 10 292 0.0 4.8 0.00 0.00 0.00 92 1005.0
20260509090450 9 251 1.6 4.8 0.00 0.00 0.00 92 1005.0
20260509090219 10 167 1.6 1.6 0.00 0.00 0.00 92 1004.7
20260509085954 9 195 0.0 4.8 0.00 0.00 0.00 92 1004.9
20260509085719 10 193 0.0 0.0 0.00 0.00 0.00 92 1004.7
20260509085451 9 182 0.0 4.8 0.00 0.00 0.00 92 1004.9
20260509084720 10 171 0.0 0.0 0.00 0.00 0.00 92 1004.7
20260509084450 9 159 0.0 4.8 0.00 0.00 0.00 92 1004.8
20260509084220 10 151 0.0 0.0 0.00 0.00 0.00 92 1004.7
20260509083451 9 197 0.0 4.8 0.00 0.00 0.00 91 1004.9
20260509083219 10 196 0.0 0.0 0.00 0.00 0.00 91 1004.7
20260509082451 10 193 0.0 3.2 0.00 0.00 0.00 91 1004.9
20260509082219 10 193 0.0 0.0 0.00 0.00 0.00 91 1004.7
20260509081719 10 198 0.0 0.0 0.00 0.00 0.00 91 1004.7
20260509081451 10 200 0.0 3.2 0.00 0.00 0.00 91 1004.9
20260509080951 10 198 0.0 3.2 0.00 0.00 0.00 91 1005.0
20260509080719 10 200 0.0 0.0 0.00 0.00 0.00 91 1004.7
20260509080451 10 179 0.0 1.6 0.00 0.00 0.00 91 1005.1
20260509080219 10 179 0.0 0.0 0.00 0.00 0.00 91 1005.1
20260509075954 10 159 0.0 1.6 0.00 0.00 0.00 91 1005.2
20260509075719 10 159 0.0 0.0 0.00 0.00 0.00 91 1005.1
20260509075450 10 159 0.0 1.6 0.00 0.00 0.00 90 1005.1
20260509074951 10 159 0.0 1.6 0.00 0.00 0.00 90 1005.1
20260509074719 10 158 0.0 0.0 0.00 0.00 0.00 90 1005.1
20260509074450 10 158 0.0 1.6 0.00 0.00 0.00 90 1005.1
20260509074219 10 156 0.0 0.0 0.00 0.00 0.00 90 1005.1
20260509072951 10 154 0.0 3.2 0.00 0.00 0.00 90 1005.0
20260509072719 10 153 0.0 0.0 0.00 0.00 0.00 90 1004.7
20260509072450 10 153 0.0 3.2 0.00 0.00 0.00 90 1004.9
20260509072220 10 147 0.0 0.0 0.00 0.00 0.00 90 1004.7
20260509071951 10 146 0.0 3.2 0.00 0.00 0.00 90 1005.0
20260509071220 11 166 0.0 0.0 0.00 0.00 0.00 90 1005.1
20260509070451 10 166 0.0 1.6 0.00 0.00 0.00 90 1005.3
20260509070220 11 208 0.0 0.0 0.00 0.00 0.00 90 1005.1
20260509065219 11 210 0.0 0.0 0.00 0.00 0.00 90 1005.4
20260509064951 11 205 0.0 3.2 0.00 0.00 0.00 89 1005.5
20260509064720 11 205 0.0 0.0 0.00 0.00 0.00 89 1005.4
20260509064451 11 201 3.2 3.2 0.00 0.00 0.00 89 1005.6
20260509063951 11 190 0.0 0.0 0.00 0.00 0.00 89 1005.7
20260509063720 11 189 0.0 0.0 0.00 0.00 0.00 89 1005.4
20260509063450 11 189 0.0 1.6 0.00 0.00 0.00 89 1005.7
20260509062720 11 187 0.0 0.0 0.00 0.00 0.00 89 1005.4
20260509062450 11 178 3.2 3.2 0.00 0.00 0.00 89 1005.7
20260509062219 11 209 0.0 0.0 0.00 0.00 0.00 89 1005.4
20260509061951 11 205 0.0 3.2 0.00 0.00 0.00 89 1005.7
20260509061449 11 221 0.0 4.8 0.00 0.00 0.00 89 1005.7
20260509061219 11 221 0.0 0.0 0.00 0.00 0.00 89 1005.8
20260509060956 11 231 1.6 4.8 0.00 0.00 0.00 89 1005.7
20260509060449 11 206 0.0 4.8 0.00 0.00 0.00 89 1005.8
20260509060219 11 189 0.0 0.0 0.00 0.00 0.00 88 1005.8
20260509055453 11 225 0.0 4.8 0.00 0.00 0.00 88 1005.8
20260509055220 12 226 1.6 1.6 0.00 0.00 0.00 88 1005.8
20260509054956 11 202 0.0 4.8 0.00 0.00 0.00 88 1005.9
20260509054219 12 223 1.6 1.6 0.00 0.00 0.00 88 1005.8
20260509053955 11 199 1.6 6.4 0.00 0.00 0.00 88 1005.9
20260509053719 12 238 1.6 1.6 0.00 0.00 0.00 88 1005.8
20260509053453 12 227 0.0 6.4 0.00 0.00 0.00 88 1005.9
20260509053219 12 236 1.6 1.6 0.00 0.00 0.00 88 1005.8
20260509052455 12 252 1.6 6.4 0.00 0.00 0.00 87 1005.9
20260509052219 12 257 1.6 1.6 0.00 0.00 0.00 87 1005.8
20260509051454 12 249 0.0 9.7 0.00 0.00 0.00 87 1005.9
20260509050955 12 245 3.2 9.7 0.00 0.00 0.00 86 1005.9
20260509050719 12 257 1.6 1.6 0.00 0.00 0.00 86 1005.8
20260509050453 12 241 3.2 4.8 0.00 0.00 0.00 86 1006.0
20260509050219 12 271 1.6 1.6 0.00 0.00 0.00 86 1006.1
20260509045955 12 231 3.2 6.4 0.00 0.00 0.00 86 1006.1
20260509045452 12 207 0.0 6.4 0.00 0.00 0.00 86 1006.1
20260509045219 12 209 1.6 1.6 0.00 0.00 0.00 85 1006.1
20260509044954 12 232 3.2 3.2 0.00 0.00 0.00 85 1006.1
20260509044454 12 261 1.6 4.8 0.00 0.00 0.00 85 1006.2
20260509044220 12 262 1.6 1.6 0.00 0.00 0.00 85 1006.1
20260509043956 12 267 0.0 4.8 0.00 0.00 0.00 85 1006.3
20260509043219 12 237 0.0 0.0 0.00 0.00 0.00 84 1006.1
20260509042954 12 226 0.0 6.4 0.00 0.00 0.00 84 1006.3
20260509042720 13 171 0.0 0.0 0.00 0.00 0.00 84 1006.1
20260509042452 12 219 3.2 6.4 0.00 0.00 0.00 83 1006.3
20260509041954 12 265 3.2 6.4 0.00 0.00 0.00 83 1006.4
20260509041719 13 248 1.6 1.6 0.00 0.00 0.00 83 1006.4
20260509041454 13 236 0.0 8.0 0.00 0.00 0.00 83 1006.4
20260509041004 13 249 0.0 8.0 0.00 0.00 0.00 82 1006.4
20260509040719 13 217 1.6 1.6 0.00 0.00 0.00 82 1006.4
20260509040453 13 249 1.6 6.4 0.00 0.00 0.00 82 1006.4
20260509035957 13 204 1.6 11.3 0.00 0.00 0.00 82 1006.3
20260509035454 13 217 1.6 11.3 0.00 0.00 0.00 81 1006.4
20260509035219 13 126 1.6 1.6 0.00 0.00 0.00 81 1006.4
20260509034954 13 245 3.2 8.0 0.00 0.00 0.00 81 1006.4
20260509034453 13 284 0.0 8.0 0.00 0.00 0.00 81 1006.5
20260509034219 13 223 1.6 1.6 0.00 0.00 0.00 81 1006.4
20260509033955 13 227 0.0 6.4 0.00 0.00 0.00 80 1006.6
20260509033454 13 217 0.0 8.0 0.00 0.00 0.00 80 1006.6
20260509033219 13 202 1.6 1.6 0.00 0.00 0.00 80 1006.4
20260509032954 13 211 4.8 8.0 0.00 0.00 0.00 80 1006.6
20260509032454 13 208 0.0 8.0 0.00 0.00 0.00 79 1006.6
20260509032219 13 207 1.6 1.6 0.00 0.00 0.00 79 1006.4
20260509031954 13 197 1.6 11.3 0.00 0.00 0.00 79 1006.7
20260509031454 13 184 4.8 11.3 0.00 0.00 0.00 79 1006.7
20260509031220 13 253 0.0 0.0 0.00 0.00 0.00 79 1006.8
20260509030955 13 198 1.6 6.4 0.00 0.00 0.00 78 1006.8
20260509030453 13 279 4.8 4.8 0.00 0.00 0.00 78 1006.8
20260509030219 14 230 0.0 0.0 0.00 0.00 0.00 78 1006.8
20260509025954 13 250 1.6 6.4 0.00 0.00 0.00 78 1006.8
20260509025453 13 297 0.0 6.4 0.00 0.00 0.00 77 1006.8
20260509025220 14 227 1.6 1.6 0.00 0.00 0.00 77 1006.8
20260509024953 13 263 0.0 8.0 0.00 0.00 0.00 77 1006.8
20260509024720 14 225 1.6 1.6 0.00 0.00 0.00 77 1006.8
20260509024452 13 225 0.0 8.0 0.00 0.00 0.00 77 1006.8
20260509023954 13 229 1.6 4.8 0.00 0.00 0.00 77 1006.8
20260509023719 14 251 1.6 1.6 0.00 0.00 0.00 76 1006.8
20260509023453 14 217 3.2 6.4 0.00 0.00 0.00 76 1006.8
20260509022954 14 245 1.6 4.8 0.00 0.00 0.00 77 1006.8
20260509022720 14 234 1.6 1.6 0.00 0.00 0.00 77 1006.8
20260509022452 14 202 0.0 4.8 0.00 0.00 0.00 76 1006.8
20260509022000 14 209 1.6 6.4 0.00 0.00 0.00 77 1006.7
20260509021719 15 213 1.6 1.6 0.00 0.00 0.00 77 1006.8
20260509021452 14 222 1.6 6.4 0.00 0.00 0.00 77 1006.7
20260509021219 15 214 1.6 1.6 0.00 0.00 0.00 77 1006.8
20260509020954 14 259 1.6 8.0 0.00 0.00 0.00 77 1006.6
20260509020719 15 212 1.6 1.6 0.00 0.00 0.00 77 1006.4
20260509020502 14 244 0.0 8.0 0.00 0.00 0.00 77 1006.5
20260509020219 15 213 1.6 1.6 0.00 0.00 0.00 77 1006.4
20260509015956 14 199 0.0 6.4 0.00 0.00 0.00 77 1006.5
20260509015452 15 203 0.0 6.4 0.00 0.00 0.00 77 1006.5
20260509015219 15 232 1.6 1.6 0.00 0.00 0.00 77 1006.4
20260509014954 15 232 4.8 4.8 0.00 0.00 0.00 77 1006.5
20260509014454 15 253 1.6 6.4 0.00 0.00 0.00 76 1006.4
20260509014220 15 215 1.6 1.6 0.00 0.00 0.00 76 1006.4
20260509013955 15 225 1.6 6.4 0.00 0.00 0.00 76 1006.4
20260509013454 15 218 3.2 9.7 0.00 0.00 0.00 76 1006.5
20260509013219 15 167 3.2 3.2 0.00 0.00 0.00 75 1006.4
20260509012954 15 205 1.6 6.4 0.00 0.00 0.00 75 1006.4
20260509012219 15 202 3.2 3.2 0.00 0.00 0.00 75 1006.4
20260509011453 15 194 3.2 6.4 0.00 0.00 0.00 73 1006.5
20260509010954 15 211 1.6 8.0 0.00 0.00 0.00 73 1006.5
20260509010719 16 215 1.6 1.6 0.00 0.00 0.00 72 1006.4
20260509005219 16 204 1.6 1.6 0.00 0.00 0.00 67 1006.1
20260509004452 16 260 0.0 4.8 0.00 0.00 0.00 66 1006.1
20260509003954 16 265 3.2 4.8 0.00 0.00 0.00 65 1006.2
20260509003219 17 263 1.6 1.6 0.00 0.00 0.00 64 1006.1
20260509002954 17 264 3.2 6.4 0.00 0.00 0.00 64 1006.1
20260509002719 17 278 1.6 1.6 0.00 0.00 0.00 64 1006.1
20260509002453 17 240 3.2 9.7 0.00 0.00 0.00 64 1006.1
20260509002219 17 261 1.6 1.6 0.00 0.00 0.00 63 1006.1
20260509001720 17 230 3.2 3.2 0.00 0.00 0.00 63 1006.1
20260509001453 17 236 1.6 6.4 0.00 0.00 0.00 62 1006.1
20260509000954 17 223 3.2 6.4 0.00 0.00 0.00 62 1006.2
20260509000719 17 250 1.6 1.6 0.00 0.00 0.00 63 1006.1
20260509000455 17 269 0.0 6.4 0.00 0.00 0.00 63 1006.2
20260509000220 17 257 3.2 3.2 0.00 0.00 0.00 63 1006.1
20260508235953 17 258 0.0 8.0 0.00 0.00 0.00 62 1006.2
20260508235453 17 250 1.6 12.9 0.00 0.00 0.00 63 1006.1
20260508235220 17 171 3.2 3.2 0.00 0.00 0.00 63 1006.1
20260508234954 17 271 4.8 12.9 0.00 0.00 0.00 63 1006.2
20260508234220 17 234 3.2 3.2 0.00 0.00 0.00 64 1006.1
20260508233452 17 260 1.6 11.3 0.00 0.00 0.00 64 1006.1
20260508232954 17 284 3.2 11.3 0.00 0.00 0.00 64 1006.2
20260508232452 17 204 3.2 11.3 0.00 0.00 0.00 63 1006.1
20260508231956 17 269 1.6 11.3 0.00 0.00 0.00 63 1006.2
20260508231219 18 285 3.2 3.2 0.00 0.00 0.00 62 1006.1
20260508230956 18 212 1.6 11.3 0.00 0.00 0.00 62 1006.2
20260508230453 18 274 0.0 11.3 0.00 0.00 0.00 62 1006.2
20260508230219 18 255 3.2 3.2 0.00 0.00 0.00 62 1006.1
20260508225954 18 221 1.6 14.5 0.00 0.00 0.00 61 1006.2
20260508225719 18 241 3.2 3.2 0.00 0.00 0.00 61 1006.1
20260508225453 18 240 1.6 14.5 0.00 0.00 0.00 61 1006.3
20260508225220 18 280 3.2 3.2 0.00 0.00 0.00 61 1006.1
20260508224955 18 234 1.6 8.0 0.00 0.00 0.00 61 1006.3
20260508224453 18 261 3.2 8.0 0.00 0.00 0.00 60 1006.3
20260508224219 18 241 1.6 1.6 0.00 0.00 0.00 60 1006.1
20260508223954 18 195 3.2 8.0 0.00 0.00 0.00 60 1006.3
20260508223719 18 206 3.2 3.2 0.00 0.00 0.00 61 1006.4
20260508223452 18 182 1.6 8.0 0.00 0.00 0.00 60 1006.3
20260508223219 18 246 3.2 3.2 0.00 0.00 0.00 60 1006.4
20260508222954 18 192 6.4 11.3 0.00 0.00 0.00 60 1006.3
20260508222453 18 295 6.4 11.3 0.00 0.00 0.00 62 1006.4
20260508222219 18 186 1.6 1.6 0.00 0.00 0.00 64 1006.4
20260508221954 18 232 0.0 4.8 0.00 0.00 0.00 62 1006.4
20260508221719 18 247 1.6 1.6 0.00 0.00 0.00 62 1006.4
20260508221453 18 201 3.2 6.4 0.00 0.00 0.00 61 1006.4
20260508220954 18 215 3.2 9.7 0.00 0.00 0.00 61 1006.4
20260508220719 18 274 1.6 1.6 0.00 0.00 0.00 63 1006.4
20260508220453 18 263 6.4 9.7 0.00 0.00 0.00 62 1006.3
20260508215954 17 281 3.2 4.8 0.00 0.00 0.00 64 1006.4
20260508215719 18 111 0.0 0.0 0.00 0.00 0.00 63 1006.4
20260508215452 17 113 1.6 4.8 0.00 0.00 0.00 62 1006.4
20260508215220 18 119 0.0 0.0 0.00 0.00 0.00 62 1006.4
20260508214952 18 125 1.6 4.8 0.00 0.00 0.00 61 1006.4
20260508214452 18 134 0.0 4.8 0.00 0.00 0.00 61 1006.5
20260508213953 18 154 0.0 4.8 0.00 0.00 0.00 61 1006.5
20260508213452 18 190 0.0 3.2 0.00 0.00 0.00 60 1006.6
20260508213220 18 190 0.0 0.0 0.00 0.00 0.00 60 1006.4
20260508212952 18 191 0.0 3.2 0.00 0.00 0.00 60 1006.5
20260508212452 18 191 0.0 4.8 0.00 0.00 0.00 61 1006.6
20260508212219 18 194 0.0 0.0 0.00 0.00 0.00 62 1006.4
20260508211952 18 190 1.6 4.8 0.00 0.00 0.00 62 1006.6
20260508211453 17 179 1.6 4.8 0.00 0.00 0.00 62 1006.5
20260508211219 18 201 0.0 0.0 0.00 0.00 0.00 62 1006.8
20260508210952 18 166 4.8 4.8 0.00 0.00 0.00 62 1006.6
20260508210720 18 155 0.0 0.0 0.00 0.00 0.00 62 1006.8
20260508210451 18 254 1.6 4.8 0.00 0.00 0.00 62 1006.7
20260508210218 18 254 0.0 0.0 0.00 0.00 0.00 62 1006.8
20260508205953 18 254 1.6 4.8 0.00 0.00 0.00 63 1006.7
20260508205452 18 256 1.6 4.8 0.00 0.00 0.00 62 1006.7
20260508205221 18 319 0.0 0.0 0.00 0.00 0.00 62 1006.8
20260508204954 18 319 0.0 3.2 0.00 0.00 0.00 62 1006.7
20260508204219 18 311 0.0 0.0 0.00 0.00 0.00 61 1007.1
20260508203955 18 291 1.6 6.4 0.00 0.00 0.00 61 1007.0
20260508203453 18 132 1.6 6.4 0.00 0.00 0.00 60 1007.0
20260508203219 18 153 0.0 0.0 0.00 0.00 0.00 60 1007.1
20260508202954 18 202 0.0 6.4 0.00 0.00 0.00 60 1007.1
20260508202719 18 213 0.0 0.0 0.00 0.00 0.00 61 1007.1
20260508202453 18 74 0.0 6.4 0.00 0.00 0.00 60 1007.2
20260508201954 18 184 0.0 3.2 0.00 0.00 0.00 61 1007.3
20260508201452 18 169 3.2 6.4 0.00 0.00 0.00 62 1007.3
20260508201219 18 265 0.0 0.0 0.00 0.00 0.00 62 1007.5
20260508200954 17 265 0.0 6.4 0.00 0.00 0.00 62 1007.4
20260508200719 18 211 0.0 0.0 0.00 0.00 0.00 62 1007.5
20260508200453 17 360 0.0 3.2 0.00 0.00 0.00 62 1007.6
20260508195954 17 84 0.0 6.4 0.00 0.00 0.00 61 1007.7
20260508195719 18 83 1.6 1.6 0.00 0.00 0.00 62 1007.8
20260508195452 18 82 1.6 6.4 0.00 0.00 0.00 60 1007.6
20260508194954 18 17 1.6 6.4 0.00 0.00 0.00 60 1007.7
20260508194452 18 251 0.0 4.8 0.00 0.00 0.00 61 1007.7
20260508194219 18 51 1.6 1.6 0.00 0.00 0.00 61 1007.8
20260508193954 17 49 0.0 6.4 0.00 0.00 0.00 61 1007.7
20260508193719 18 167 1.6 1.6 0.00 0.00 0.00 61 1007.8
20260508192954 17 170 0.0 6.4 0.00 0.00 0.00 62 1007.9
20260508192719 17 139 1.6 1.6 0.00 0.00 0.00 62 1007.8
20260508192453 17 132 3.2 6.4 0.00 0.00 0.00 65 1007.9
20260508191953 17 144 3.2 6.4 0.00 0.00 0.00 64 1007.9
20260508191452 16 155 1.6 8.0 0.00 0.00 0.00 66 1008.0
20260508191218 17 94 1.6 1.6 0.00 0.00 0.00 65 1008.1
20260508190955 16 95 1.6 6.4 0.00 0.00 0.00 67 1008.0
20260508190719 17 97 0.0 0.0 0.00 0.00 0.00 66 1008.1
20260508190452 16 100 3.2 8.0 0.00 0.00 0.00 64 1008.1
20260508185953 16 82 8.0 8.0 0.00 0.00 0.00 64 1008.2
20260508185718 17 79 1.6 1.6 0.00 0.00 0.00 65 1008.1
20260508185452 16 122 0.0 4.8 0.00 0.00 0.00 63 1008.3
20260508185220 17 122 1.6 1.6 0.00 0.00 0.00 64 1008.5
20260508184953 16 122 1.6 4.8 0.00 0.00 0.00 64 1008.4
20260508184452 16 112 3.2 4.8 0.00 0.00 0.00 63 1008.4
20260508184219 17 338 1.6 1.6 0.00 0.00 0.00 64 1008.5
20260508183953 17 260 3.2 6.4 0.00 0.00 0.00 63 1008.5
20260508183718 17 202 1.6 1.6 0.00 0.00 0.00 63 1008.5
20260508183453 17 128 0.0 6.4 0.00 0.00 0.00 63 1008.5
20260508182953 17 144 1.6 6.4 0.00 0.00 0.00 63 1008.6
20260508182718 17 86 1.6 1.6 0.00 0.00 0.00 63 1008.8
20260508182452 17 103 0.0 6.4 0.00 0.00 0.00 63 1008.6
20260508182218 17 164 0.0 0.0 0.00 0.00 0.00 63 1008.8
20260508181953 17 238 1.6 6.4 0.00 0.00 0.00 63 1008.7
20260508181452 17 130 1.6 6.4 0.00 0.00 0.00 62 1008.7
20260508180953 17 124 1.6 9.7 0.00 0.00 0.00 63 1008.8
20260508180718 17 175 0.0 0.0 0.00 0.00 0.00 62 1008.8
20260508180452 17 95 1.6 9.7 0.00 0.00 0.00 62 1008.8
20260508180219 18 96 0.0 0.0 0.00 0.00 0.00 62 1008.8
20260508175952 17 107 4.8 11.3 0.00 0.00 0.00 62 1008.8
20260508175451 17 86 4.8 11.3 0.00 0.00 0.00 62 1008.9
20260508175219 18 196 1.6 1.6 0.00 0.00 0.00 64 1008.8
20260508174954 17 138 3.2 6.4 0.00 0.00 0.00 64 1008.9
20260508174451 17 84 1.6 8.0 0.00 0.00 0.00 63 1009.1
20260508174220 17 232 1.6 1.6 0.00 0.00 0.00 64 1009.1
20260508173953 17 105 0.0 8.0 0.00 0.00 0.00 63 1009.1
20260508173719 17 78 1.6 1.6 0.00 0.00 0.00 64 1009.1
20260508173453 17 129 3.2 6.4 0.00 0.00 0.00 64 1009.3
20260508173219 17 99 1.6 1.6 0.00 0.00 0.00 64 1009.5
20260508172953 17 248 1.6 6.4 0.00 0.00 0.00 63 1009.4
20260508172452 17 211 0.0 6.4 0.00 0.00 0.00 64 1009.5
20260508172219 17 57 1.6 1.6 0.00 0.00 0.00 64 1009.5
20260508171953 17 39 3.2 9.7 0.00 0.00 0.00 63 1009.6
20260508171218 17 120 1.6 1.6 0.00 0.00 0.00 63 1009.8
20260508170952 17 142 3.2 6.4 0.00 0.00 0.00 63 1009.7
20260508170720 18 87 1.6 1.6 0.00 0.00 0.00 63 1009.8
20260508170452 17 219 3.2 9.7 0.00 0.00 0.00 64 1009.8
20260508170219 18 320 1.6 1.6 0.00 0.00 0.00 64 1009.8
20260508165956 17 135 1.6 11.3 0.00 0.00 0.00 63 1009.8
20260508165220 17 220 1.6 1.6 0.00 0.00 0.00 66 1009.8
20260508164955 17 129 3.2 8.0 0.00 0.00 0.00 64 1009.9
20260508164452 17 248 0.0 6.4 0.00 0.00 0.00 64 1010.0
20260508164219 17 244 1.6 1.6 0.00 0.00 0.00 63 1010.2
20260508163953 17 225 3.2 8.0 0.00 0.00 0.00 64 1010.1
20260508163452 17 80 1.6 8.0 0.00 0.00 0.00 64 1010.1
20260508163219 18 292 1.6 1.6 0.00 0.00 0.00 64 1010.2
20260508162453 17 108 1.6 9.7 0.00 0.00 0.00 64 1010.2
20260508162219 17 230 1.6 1.6 0.00 0.00 0.00 65 1010.5
20260508161953 17 158 8.0 8.0 0.00 0.00 0.00 65 1010.3
20260508161720 17 180 1.6 1.6 0.00 0.00 0.00 65 1010.5
20260508161452 17 51 1.6 6.4 0.00 0.00 0.00 64 1010.3
20260508160957 17 247 1.6 6.4 0.00 0.00 0.00 64 1010.3
20260508160720 17 192 1.6 1.6 0.00 0.00 0.00 65 1010.5
20260508160453 17 205 1.6 6.4 0.00 0.00 0.00 64 1010.4
20260508160218 17 221 1.6 1.6 0.00 0.00 0.00 66 1010.5
20260508155954 17 317 0.0 9.7 0.00 0.00 0.00 64 1010.4
20260508155453 17 163 0.0 9.7 0.00 0.00 0.00 64 1010.4
20260508155220 17 269 1.6 1.6 0.00 0.00 0.00 66 1010.5
20260508154954 17 165 0.0 6.4 0.00 0.00 0.00 66 1010.4
20260508154219 17 206 3.2 3.2 0.00 0.00 0.00 67 1010.5
20260508153954 17 204 0.0 6.4 0.00 0.00 0.00 67 1010.6
20260508153453 17 311 3.2 4.8 0.00 0.00 0.00 66 1010.7
20260508153219 17 37 1.6 1.6 0.00 0.00 0.00 67 1010.8
20260508152954 17 188 1.6 6.4 0.00 0.00 0.00 66 1010.7
20260508152452 17 253 0.0 9.7 0.00 0.00 0.00 65 1010.6
20260508151955 17 282 4.8 9.7 0.00 0.00 0.00 68 1010.6
20260508150954 17 215 1.6 8.0 0.00 0.00 0.00 69 1010.5
20260508150453 16 269 3.2 12.9 0.00 0.00 0.00 68 1010.6
20260508150219 17 265 1.6 1.6 0.00 0.00 0.00 69 1010.8
20260508145955 16 271 6.4 12.9 0.00 0.00 0.00 67 1010.6
20260508145452 16 236 3.2 11.3 0.00 0.00 0.00 71 1010.7
20260508145219 16 278 1.6 1.6 0.00 0.00 0.00 70 1010.8
20260508144955 16 191 4.8 9.7 0.00 0.00 0.00 71 1010.7
20260508144719 16 240 1.6 1.6 0.00 0.00 0.00 72 1010.8
20260508143719 16 135 1.6 1.6 0.00 0.00 0.00 74 1010.8
20260508143452 15 182 1.6 11.3 0.00 0.00 0.00 74 1010.8
20260508143220 15 265 1.6 1.6 0.00 0.00 0.00 74 1010.8
20260508142954 15 275 3.2 4.8 0.00 0.00 0.00 75 1010.8
20260508142452 15 195 1.6 4.8 0.00 0.00 0.00 76 1010.7
20260508142219 15 203 0.0 0.0 0.00 0.00 0.00 76 1010.8
20260508141953 15 200 1.6 4.8 0.00 0.00 0.00 77 1010.8
20260508141452 15 215 3.2 4.8 0.00 0.00 0.00 79 1010.9
20260508141219 15 224 0.0 0.0 0.00 0.00 0.00 80 1010.8
20260508140953 14 128 3.2 4.8 0.00 0.00 0.00 81 1010.8
20260508140452 13 251 3.2 4.8 0.00 0.00 0.00 82 1010.8
20260508140219 13 273 0.0 0.0 0.00 0.00 0.00 83 1010.8
20260508135956 13 269 3.2 8.0 0.00 0.00 0.00 84 1010.8
20260508135453 13 212 0.0 4.8 0.00 0.00 0.00 85 1010.9
20260508134955 12 181 1.6 4.8 0.00 0.00 0.00 86 1010.9
20260508134719 12 244 0.0 0.0 0.00 0.00 0.00 87 1010.8
20260508133953 12 165 0.0 4.8 0.00 0.00 0.00 88 1011.0
20260508133218 12 202 0.0 0.0 0.00 0.00 0.00 89 1011.2
20260508132953 11 202 1.6 4.8 0.00 0.00 0.00 89 1011.0
20260508132454 11 213 3.2 4.8 0.00 0.00 0.00 89 1011.1
20260508131955 11 236 0.0 6.4 0.00 0.00 0.00 89 1011.0
20260508131452 11 254 0.0 6.4 0.00 0.00 0.00 90 1011.1
20260508130954 10 245 0.0 4.8 0.00 0.00 0.00 90 1011.0
20260508130452 10 250 0.0 4.8 0.00 0.00 0.00 90 1011.0
20260508125954 10 339 0.0 4.8 0.00 0.00 0.00 90 1010.9
20260508125451 10 275 0.0 4.8 0.00 0.00 0.00 90 1010.9
20260508124953 9 254 0.0 4.8 0.00 0.00 0.00 90 1010.9
20260508124719 10 252 0.0 0.0 0.00 0.00 0.00 90 1011.2
20260508124453 9 240 0.0 3.2 0.00 0.00 0.00 90 1011.0
20260508123953 9 237 0.0 3.2 0.00 0.00 0.00 90 1011.1
20260508123719 9 207 0.0 0.0 0.00 0.00 0.00 90 1011.5
20260508122952 8 250 0.0 0.0 0.00 0.00 0.00 90 1011.2
20260508122451 8 252 0.0 0.0 0.00 0.00 0.00 90 1011.3
20260508122218 9 252 0.0 0.0 0.00 0.00 0.00 90 1011.5
20260508121952 8 252 0.0 0.0 0.00 0.00 0.00 89 1011.2
20260508121219 9 252 0.0 0.0 0.00 0.00 0.00 89 1011.5
20260508120952 8 252 0.0 0.0 0.00 0.00 0.00 89 1011.2
20260508120719 8 252 0.0 0.0 0.00 0.00 0.00 89 1011.2
20260508120452 8 252 0.0 0.0 0.00 0.00 0.00 89 1010.9
20260508115952 8 252 0.0 0.0 0.00 0.00 0.00 90 1010.8
20260508115450 8 254 0.0 0.0 0.00 0.00 0.00 90 1010.8
20260508114951 8 265 0.0 0.0 0.00 0.00 0.00 90 1011.0
20260508114718 8 265 0.0 0.0 0.00 0.00 0.00 90 1011.2
20260508114450 8 265 0.0 0.0 0.00 0.00 0.00 90 1011.1
20260508113951 8 265 0.0 0.0 0.00 0.00 0.00 90 1011.1
20260508113719 8 265 0.0 0.0 0.00 0.00 0.00 89 1011.2
20260508113450 8 265 0.0 0.0 0.00 0.00 0.00 89 1010.9
20260508112951 8 265 0.0 0.0 0.00 0.00 0.00 89 1010.5